Inquirer Daily News

Weather

Get conditions and forecasts for any City, State, ZIP code or Country:  
Trenton, NJ
on Friday, February 8, 2013

Friday
Previous Day Next Day
Daily Summary
 ActualAverageRecord
Temperature
Mean Temperature °F 33°F  
Max Temperature 38°F 41°F 62°F (1933)
Min Temperature 31°F 25°F -8°F (1934)
Degree Days
Heating Degree Days 30 32  
Month to date heating degree days 292 262  
Since 1 July heating degree days 3000 3208  
Cooling Degree Days 0 0  
Month to date cooling degree days 0 0  
Year to date cooling degree days 0 0  
Moisture
Dew Point 30°F   
Average Humidity 81    
Maximum Humidity 96    
Minimum Humidity 66    
Precipitation
Precipitation 0.37 in 0.09 in 0.78 in (1900)
Month to date precipitation 0.41 0.57  
Year to date precipitation 3.23 3.73  
Wind
Wind Speed 13 mph   
Max Wind Speed 22 mph   
Max Gust Speed 30 mph   
Visibility 6 miles   
Events Rain , Snow   

Key: T is trace of precipitation, MM is missing value
Source: NWS Daily Summary
Time(EST)TemperatureDew PointHumidity Pressure Visibility Wind DirectionWind SpeedGust SpeedPrecipitationEvents Conditions
12:53 AM 33.1°F 25.0°F 72% 30.24 in 10.0 miles ENE 8.1 mph - N/A   Overcast
1:53 AM 34.0°F 26.1°F 73% 30.20 in 10.0 miles East 9.2 mph - N/A   Overcast
2:02 AM 33.8°F 26.6°F 75% 30.21 in 10.0 miles East 9.2 mph - N/A   Overcast
2:53 AM 35.1°F 28.9°F 78% 30.18 in 10.0 miles East 9.2 mph - N/A   Overcast
3:53 AM 37.0°F 30.9°F 79% 30.13 in 10.0 miles East 12.7 mph - N/A   Overcast
4:53 AM 37.9°F 32.0°F 79% 30.12 in 10.0 miles East 15.0 mph 20.7 mph N/A   Overcast
5:53 AM 36.0°F 33.1°F 89% 30.08 in 4.0 miles East 13.8 mph - 0.00 in Rain Light Rain
6:24 AM 35.6°F 32.0°F 87% 30.07 in 5.0 miles ENE 13.8 mph - 0.01 in Rain Light Rain
6:53 AM 34.0°F 30.9°F 89% 30.05 in 9.0 miles ENE 11.5 mph 23.0 mph 0.01 in   Overcast
7:42 AM 33.8°F 30.2°F 87% 30.04 in 8.0 miles ENE 15.0 mph 20.7 mph 0.00 in Rain Light Rain
7:53 AM 34.0°F 30.9°F 89% 30.03 in 7.0 miles East 16.1 mph 21.9 mph 0.00 in Rain Light Rain
8:00 AM 33.8°F 30.2°F 87% 30.04 in 7.0 miles East 15.0 mph 21.9 mph 0.00 in Rain Light Rain
8:53 AM 34.0°F 32.0°F 92% 30.00 in 5.0 miles East 17.3 mph - 0.03 in Rain Light Rain
9:53 AM 34.0°F 32.0°F 92% 29.95 in 6.0 miles ENE 16.1 mph 24.2 mph 0.04 in Rain Light Rain
10:53 AM 35.1°F 33.1°F 92% 29.90 in 5.0 miles East 16.1 mph - 0.04 in Rain Light Rain
11:53 AM 35.1°F 33.1°F 92% 29.85 in 6.0 miles ENE 15.0 mph 24.2 mph 0.03 in Rain Light Rain
12:53 PM 35.1°F 32.0°F 89% 29.78 in 6.0 miles NE 15.0 mph 23.0 mph 0.04 in Rain Light Rain
1:53 PM 34.0°F 30.9°F 89% 29.73 in 6.0 miles ENE 15.0 mph 24.2 mph 0.03 in Rain Light Rain
2:53 PM 34.0°F 30.9°F 89% 29.70 in 6.0 miles ENE 13.8 mph 24.2 mph 0.04 in Rain Light Rain
3:53 PM 34.0°F 30.9°F 89% 29.67 in 10.0 miles ENE 13.8 mph 20.7 mph 0.01 in Rain Light Rain
4:15 PM 33.8°F 30.2°F 87% 29.69 in 10.0 miles NE 11.5 mph 21.9 mph 0.00 in   Overcast
4:53 PM 33.1°F 30.0°F 89% 29.67 in 3.0 miles NE 9.2 mph - 0.00 in   Overcast
5:03 PM 33.8°F 30.2°F 87% 29.68 in 5.0 miles NE 11.5 mph - N/A   Overcast
5:53 PM 33.1°F 30.0°F 89% 29.66 in 10.0 miles NE 10.4 mph - N/A   Overcast
6:33 PM 33.8°F 28.4°F 81% 29.66 in 10.0 miles NE 12.7 mph 19.6 mph N/A   Overcast
6:53 PM 34.0°F 28.9°F 82% 29.65 in 10.0 miles NE 11.5 mph 20.7 mph N/A   Overcast
7:53 PM 34.0°F 28.9°F 82% 29.70 in 10.0 miles North 9.2 mph - 0.00 in   Overcast
8:23 PM 33.8°F 30.2°F 87% 29.71 in 1.8 miles NNW 9.2 mph - 0.01 in Snow Light Snow
8:33 PM 32.0°F 30.2°F 93% 29.71 in 1.0 miles NNW 10.4 mph - 0.02 in Snow Light Snow
8:45 PM 32.0°F 30.2°F 93% 29.71 in 1.0 miles NNW 10.4 mph - 0.03 in Snow Light Snow
8:53 PM 32.0°F 28.9°F 88% 29.70 in 1.0 miles NNW 11.5 mph 18.4 mph 0.04 in Snow Light Snow
9:53 PM 32.0°F 28.9°F 88% 29.72 in 0.8 miles North 9.2 mph 23.0 mph 0.02 in Snow Light Snow
10:13 PM 30.2°F 28.4°F 93% 29.74 in 1.0 miles NNW 11.5 mph 20.7 mph 0.01 in Snow Light Snow
10:53 PM 30.9°F 28.0°F 89% 29.74 in 1.0 miles North 16.1 mph - 0.02 in Snow Light Snow
11:02 PM 30.2°F 28.4°F 93% 29.75 in 1.2 miles North 8.1 mph - 0.00 in Snow Light Snow
11:22 PM 30.2°F 28.4°F 93% 29.75 in 1.2 miles North 8.1 mph - 0.01 in Snow Light Snow
11:53 PM 30.9°F 28.9°F 92% 29.76 in 1.2 miles NNE 11.5 mph - 0.01 in Snow Light Snow
Astronomy
Sunrise:07:00 AM (EST) Moon Rise:05:27 AM (EST)2/8
Sunset:05:26 PM (EST) Moon Set:03:57 PM (EST)2/8
Moon Phase
Feb. 08 Feb. 10 Feb. 17 Feb. 25 Mar. 04

Copyright © 2014 The Weather Underground, Inc.